Regional Weather Roundup
Issued by NWS Charleston, WV

Home | Current Version | Previous Version | Text Only | Print | Product List | Glossary Off
Versions: 1 2 3 4 5 6 7 8 9 10 11 12 13 14 15 16 17 18 19 20 21 22 23 24 25 26 27 28 29 30 31 32 33 34 35 36 37 38 39 40 41 42 43 44 45 46 47 48 49 50

000
ASUS41 KRLX 300010
RWRRLX
West Virginia Regional Weather Roundup
National Weather Service Charleston WV
700 PM EST THU JAN 29 2015

Note: "fair" indicates few or no clouds below 12,000 feet with no
significant weather and/or obstructions to visibility.

WVZ003-300100-
Northern Panhandle of West Virginia

CITY           SKY/WX    TMP DP  RH WIND       PRES   REMARKS
WHEELING       LGT RAIN  38  36  92 W17G29    29.83R FOG
$$

WVZ009-300100-
Northwest West Virginia

CITY           SKY/WX    TMP DP  RH WIND       PRES   REMARKS
PARKERSBURG    CLOUDY    40  35  83 W20G25    29.96R
$$

WVZ006-300100-
Western West Virginia

CITY           SKY/WX    TMP DP  RH WIND       PRES   REMARKS
HUNTINGTON     CLOUDY    45  35  68 NW9G21    29.99R
$$

WVZ015-300100-
West Central West Virginia

CITY           SKY/WX    TMP DP  RH WIND       PRES   REMARKS
CHARLESTON     CLOUDY    49  38  65 W9G23     29.93R
$$

WVZ022-031-300100-
North Central West Virginia

CITY           SKY/WX    TMP DP  RH WIND       PRES   REMARKS
CLARKSBURG     CLOUDY    45  37  73 SW16      29.85R
MORGANTOWN     CLOUDY    42  36  79 SW10      29.84R
$$

WVZ025-035-042-045-300100-
Southern West Virginia

CITY           SKY/WX    TMP DP  RH WIND       PRES   REMARKS
BECKLEY        CLOUDY    45  30  55 SW14      29.92S
LOGAN          CLOUDY    50  37  62 SW6G14    29.93R
BLUEFIELD      CLOUDY    46  31  55 SW17G28   29.95S
LEWISBURG      CLOUDY    35  31  85 CALM      29.94F
$$

WVZ047-300100-
Northern Mountains of West Virginia

CITY           SKY/WX    TMP DP  RH WIND       PRES   REMARKS
ELKINS         CLOUDY    39  36  89 SE5       29.88F
$$

WVZ052-300100-
Eastern Panhandle of West Virginia

CITY           SKY/WX    TMP DP  RH WIND       PRES   REMARKS
MARTINSBURG    CLOUDY    35  22  58 SE7       29.97F
PETERSBURG     CLOUDY    29  22  75 CALM      29.93F
$$



USA.gov is the U.S. government's official web portal to all federal, state and local government web resources and services.